�N����,����,�~����,�C��,���x,�C��,����,���ϕ���,�ő�u�ԕ���,�ő厞����,���˗�,�I�_���x,�n�����x,�ő啗���N��,DTYPE
"20/07/10","00:10",0.0,23.7,92.4,1004.8,308.3,0.8,1.4,315.1,0.00,22.4,24.4,"00:08:00",1
"20/07/10","00:20",0.0,23.7,92.6,1004.8,316.4,1.0,1.6,329.9,0.00,22.5,24.5,"00:11:36",1
"20/07/10","00:30",0.0,23.7,92.6,1004.5,259.8,0.8,1.2,245.8,0.00,22.5,24.8,"00:25:52",1
"20/07/10","00:40",0.0,23.8,92.8,1005.0,328.9,1.0,1.7,318.5,0.00,22.6,24.4,"00:39:44",1
"20/07/10","00:50",0.0,23.7,92.8,1004.8,329.9,1.0,1.7,303.1,0.00,22.5,24.6,"00:45:28",1
"20/07/10","01:00",0.2,23.6,93.0,1004.5,312.8,0.8,1.2,308.5,0.00,22.4,24.5,"00:58:56",1
"20/07/10","01:10",0.0,23.5,93.1,1004.5,300.0,0.6,1.3,328.1,0.00,22.4,24.4,"01:01:44",1
"20/07/10","01:20",0.0,23.4,93.2,1004.3,296.0,0.3,0.9,260.5,0.00,22.3,24.3,"01:13:04",1
"20/07/10","01:30",0.0,23.4,93.3,1004.5,307.8,0.6,1.0,326.9,0.00,22.3,24.3,"01:29:04",1
"20/07/10","01:40",0.0,23.5,93.4,1004.8,295.5,0.7,1.2,263.4,0.00,22.4,24.4,"01:35:28",1
"20/07/10","01:50",0.2,23.5,93.5,1004.5,308.2,0.8,1.2,334.6,0.00,22.4,24.4,"01:44:08",1
"20/07/10","02:00",0.2,23.5,93.5,1004.8,344.4,0.3,0.6,36.1,0.00,22.4,24.3,"01:56:56",1
"20/07/10","02:10",0.0,23.5,93.6,1004.8,338.7,0.8,1.7,353.0,0.00,22.4,24.3,"02:09:04",1
"20/07/10","02:20",0.0,23.4,93.7,1004.8,329.3,0.7,1.7,356.1,0.00,22.4,24.3,"02:13:12",1
"20/07/10","02:30",0.0,23.4,93.8,1004.8,203.9,0.0,0.4,205.4,0.00,22.4,24.4,"02:25:04",1
"20/07/10","02:40",0.2,23.4,93.9,1004.8,70.3,0.1,0.8,98.2,0.00,22.4,24.4,"02:30:02",1
"20/07/10","02:50",1.2,23.5,94.0,1005.0,120.2,0.6,1.4,84.7,0.00,22.5,24.3,"02:48:56",1
"20/07/10","03:00",0.8,23.4,94.0,1005.0,94.8,1.0,2.0,104.6,0.00,22.4,24.2,"02:59:04",1
"20/07/10","03:10",1.0,23.4,94.2,1004.8,92.2,0.8,1.7,120.1,0.00,22.5,24.1,"03:02:16",1
"20/07/10","03:20",0.2,23.3,94.2,1005.0,89.9,0.5,1.2,32.8,0.00,22.4,24.3,"03:11:28",1
"20/07/10","03:30",0.2,23.2,94.3,1005.0,43.0,0.5,1.2,2.4,0.00,22.3,24.2,"03:29:22",1
"20/07/10","03:40",0.2,23.1,94.4,1005.0,304.0,0.3,0.9,339.7,0.00,22.2,24.1,"03:30:08",1
"20/07/10","03:50",0.2,23.0,94.5,1004.8,303.3,0.5,0.9,328.5,0.00,22.1,24.0,"03:40:08",1
"20/07/10","04:00",0.2,23.0,94.6,1004.8,314.1,0.5,0.8,291.2,0.00,22.1,24.0,"03:52:00",1
"20/07/10","04:10",0.0,23.0,94.6,1004.8,292.1,0.5,0.8,309.4,0.00,22.1,24.0,"04:00:32",1
"20/07/10","04:20",0.0,22.9,94.6,1005.0,281.7,0.3,0.6,269.2,0.00,22.0,24.2,"04:10:08",1
"20/07/10","04:30",0.0,22.9,94.7,1005.0,314.9,0.5,1.2,326.5,0.00,22.0,24.1,"04:20:02",1
"20/07/10","04:40",0.0,22.9,94.8,1004.8,334.9,0.7,1.3,339.3,0.00,22.1,24.0,"04:30:32",1
"20/07/10","04:50",0.2,22.9,94.8,1005.0,337.3,0.5,0.9,328.7,0.00,22.1,24.0,"04:43:28",1
"20/07/10","05:00",0.0,22.8,94.9,1005.2,307.5,0.5,0.9,314.6,0.00,22.0,24.1,"04:50:24",1
"20/07/10","05:10",0.2,22.9,94.9,1005.2,327.0,0.7,1.3,335.7,0.00,22.1,24.2,"05:07:12",1
"20/07/10","05:20",0.2,22.8,95.0,1005.0,313.3,0.2,1.1,334.3,0.00,22.0,24.0,"05:10:56",1
"20/07/10","05:30",0.4,22.9,95.0,1005.0,261.1,0.5,1.2,206.7,0.00,22.1,24.0,"05:25:36",1
"20/07/10","05:40",0.4,22.9,95.1,1005.0,304.7,0.7,1.1,357.1,0.00,22.1,23.9,"05:33:52",1
"20/07/10","05:50",0.2,23.0,95.2,1005.2,1.6,0.6,1.1,331.5,0.00,22.2,23.9,"05:48:48",1
"20/07/10","06:00",0.2,23.0,95.2,1005.0,305.8,0.3,0.8,307.8,0.00,22.2,23.9,"05:57:20",1
"20/07/10","06:10",0.0,23.0,95.2,1005.0,291.8,0.3,0.6,304.5,0.00,22.2,23.9,"06:02:48",1
"20/07/10","06:20",0.2,23.1,95.3,1005.0,305.4,0.6,1.0,329.3,0.01,22.3,24.0,"06:19:20",1
"20/07/10","06:30",0.0,23.2,95.3,1005.0,317.4,0.6,1.0,313.1,0.01,22.4,24.1,"06:20:40",1
"20/07/10","06:40",0.0,23.2,95.3,1005.0,283.5,0.3,0.9,312.7,0.02,22.4,24.0,"06:30:32",1
"20/07/10","06:50",0.0,23.2,95.3,1005.5,276.0,0.5,1.1,313.9,0.01,22.4,24.1,"06:48:08",1
"20/07/10","07:00",0.0,23.2,95.3,1005.0,309.9,0.5,1.1,6.1,0.01,22.4,24.0,"06:57:20",1
"20/07/10","07:10",0.2,23.3,95.4,1005.2,320.2,0.7,1.3,325.2,0.01,22.6,24.1,"07:03:20",1
"20/07/10","07:20",0.2,23.3,95.4,1005.7,267.1,0.7,1.4,235.9,0.00,22.6,24.1,"07:10:56",1
"20/07/10","07:30",0.4,23.3,95.4,1005.7,338.1,0.3,1.1,348.4,0.02,22.6,24.2,"07:20:40",1
"20/07/10","07:40",0.0,23.4,95.5,1005.7,328.4,0.5,1.1,333.0,0.05,22.7,24.1,"07:39:20",1
"20/07/10","07:50",0.0,23.4,95.5,1005.5,319.0,0.7,1.4,328.5,0.03,22.7,24.0,"07:48:32",1
"20/07/10","08:00",0.0,23.4,95.5,1005.0,314.3,0.7,1.6,336.1,0.02,22.7,24.1,"07:53:28",1
"20/07/10","08:10",0.0,23.4,95.5,1005.5,266.7,0.5,0.9,240.2,0.02,22.7,24.2,"08:02:32",1
"20/07/10","08:20",0.0,23.5,95.6,1005.7,285.6,0.5,1.0,279.9,0.03,22.8,23.9,"08:14:00",1
"20/07/10","08:30",0.2,23.8,95.6,1005.7,290.6,0.5,1.0,323.6,0.07,23.1,24.2,"08:26:00",1
"20/07/10","08:40",0.0,24.0,95.6,1005.7,319.1,0.6,1.1,339.0,0.08,23.3,24.2,"08:36:24",1
"20/07/10","08:50",0.0,23.8,95.6,1005.7,319.9,1.0,1.7,343.3,0.07,23.1,24.2,"08:41:52",1
"20/07/10","09:00",0.0,23.9,95.6,1005.7,321.0,0.8,1.3,346.9,0.05,23.2,24.2,"08:51:52",1
"20/07/10","09:10",0.0,24.0,95.6,1005.5,269.8,0.5,1.0,321.8,0.05,23.3,24.2,"09:06:08",1
"20/07/10","09:20",0.0,24.1,95.6,1005.5,286.2,0.6,1.2,299.8,0.07,23.4,24.3,"09:14:08",1
"20/07/10","09:30",0.2,24.1,95.6,1005.5,265.5,0.6,1.4,319.3,0.07,23.4,24.4,"09:20:56",1
"20/07/10","09:40",0.0,24.2,95.6,1005.7,248.7,0.6,1.2,250.8,0.05,23.5,24.4,"09:33:52",1
"20/07/10","09:50",0.4,24.0,95.5,1006.0,241.3,0.8,1.7,244.1,0.04,23.3,24.5,"09:42:40",1
"20/07/10","10:00",0.6,23.9,95.6,1005.7,318.5,0.6,1.2,324.9,0.04,23.2,24.4,"09:50:16",1
"20/07/10","10:10",0.2,24.0,95.6,1005.7,340.2,0.6,1.7,348.1,0.09,23.3,24.6,"10:09:12",1
"20/07/10","10:20",0.0,23.9,95.5,1005.7,304.2,0.7,1.6,339.7,0.03,23.2,24.4,"10:11:52",1
"20/07/10","10:30",4.8,23.8,95.6,1006.0,207.8,0.5,1.0,226.4,0.02,23.1,24.6,"10:20:24",1
"20/07/10","10:40",1.0,24.0,95.6,1006.0,90.6,0.1,0.6,109.8,0.07,23.3,24.5,"10:35:04",1
"20/07/10","10:50",0.0,24.1,95.6,1006.0,107.2,0.5,1.2,52.6,0.08,23.4,24.5,"10:48:16",1
"20/07/10","11:00",1.2,24.3,95.8,1005.5,11.1,0.6,1.7,346.4,0.14,23.6,24.6,"10:50:02",1
"20/07/10","11:10",0.0,24.9,95.7,1005.2,338.6,0.8,2.6,343.3,0.34,24.2,24.7,"11:07:12",1
"20/07/10","11:20",0.2,25.0,95.6,1005.0,281.1,0.7,1.8,337.6,0.22,24.3,24.7,"11:12:00",1
"20/07/10","11:30",0.0,25.7,95.3,1004.8,329.8,0.3,1.1,0.6,0.26,24.9,24.7,"11:20:02",1
"20/07/10","11:40",0.0,25.5,95.0,1004.8,121.1,0.3,1.2,147.5,0.13,24.7,24.6,"11:33:12",1
"20/07/10","11:50",0.0,25.3,95.1,1004.8,137.5,0.2,1.4,130.6,0.08,24.5,24.8,"11:40:32",1
"20/07/10","12:00",0.0,25.2,95.1,1004.8,198.7,0.3,1.1,195.8,0.09,24.4,24.8,"11:55:20",1
"20/07/10","12:10",0.0,25.6,94.9,1004.5,245.5,0.5,1.1,234.2,0.15,24.8,25.1,"12:05:36",1
"20/07/10","12:20",0.0,26.1,94.9,1004.5,213.4,0.3,1.2,231.1,0.18,25.3,25.0,"12:18:48",1
"20/07/10","12:30",0.0,26.1,94.6,1003.8,330.1,0.6,1.3,341.5,0.16,25.2,25.0,"12:21:52",1
"20/07/10","12:40",0.2,26.0,94.6,1003.8,162.4,0.8,2.0,121.8,0.14,25.1,25.1,"12:37:20",1
"20/07/10","12:50",0.0,26.2,94.4,1003.8,226.4,0.8,1.9,229.7,0.18,25.3,25.1,"12:47:04",1
"20/07/10","13:00",0.0,26.3,94.2,1003.4,282.8,0.8,2.1,228.2,0.12,25.3,25.0,"12:51:12",1
"20/07/10","13:10",0.0,26.5,93.9,1003.6,261.8,0.6,1.4,323.8,0.14,25.5,25.3,"13:08:08",1
"20/07/10","13:20",0.0,26.5,93.6,1002.9,192.9,0.5,1.2,233.0,0.14,25.4,25.3,"13:10:16",1
"20/07/10","13:30",0.0,27.2,93.2,1002.6,253.9,0.2,1.1,299.9,0.22,26.0,25.3,"13:20:16",1
"20/07/10","13:40",0.0,27.2,92.9,1003.1,283.5,0.6,1.4,350.2,0.15,26.0,25.3,"13:36:08",1
"20/07/10","13:50",0.0,26.6,92.3,1002.9,356.0,0.5,1.7,353.0,0.06,25.3,25.4,"13:48:16",1
"20/07/10","14:00",0.0,26.8,92.0,1002.9,53.3,0.6,1.8,354.5,0.10,25.4,25.4,"13:52:24",1
"20/07/10","14:10",0.0,26.8,91.1,1003.1,77.8,0.5,1.3,122.4,0.09,25.3,25.6,"14:01:52",1
"20/07/10","14:20",0.0,26.9,90.3,1002.6,9.4,0.7,1.6,2.8,0.12,25.2,25.5,"14:12:16",1
"20/07/10","14:30",0.0,27.0,89.1,1002.6,24.5,0.7,1.9,351.8,0.09,25.1,25.7,"14:20:16",1
"20/07/10","14:40",0.0,27.1,88.0,1001.9,81.4,0.6,1.7,123.1,0.07,25.0,25.7,"14:30:02",1
"20/07/10","14:50",0.0,27.2,86.8,1001.9,121.5,1.0,2.4,125.7,0.10,24.8,25.6,"14:46:24",1
"20/07/10","15:00",0.0,27.0,85.8,1002.2,119.1,1.1,2.1,110.1,0.08,24.5,25.8,"14:53:12",1
"20/07/10","15:10",0.0,27.3,85.2,1002.4,110.4,0.5,1.3,92.6,0.07,24.6,25.8,"15:01:36",1
"20/07/10","15:20",0.0,27.3,84.4,1002.4,98.2,0.6,1.7,114.3,0.07,24.5,25.6,"15:12:08",1
"20/07/10","15:30",0.0,27.5,83.8,1001.9,55.2,0.8,1.9,342.3,0.09,24.6,25.7,"15:28:48",1
"20/07/10","15:40",0.0,27.5,83.4,1001.9,352.0,0.5,1.6,5.5,0.06,24.5,25.8,"15:38:00",1
"20/07/10","15:50",1.0,27.1,83.4,1001.9,65.3,0.5,1.4,101.1,0.00,24.1,25.6,"15:44:08",1
"20/07/10","16:00",1.0,26.8,84.8,1002.2,191.5,1.2,3.4,213.2,0.00,24.1,25.6,"15:59:04",1
"20/07/10","16:10",2.2,26.1,86.6,1002.4,169.3,1.0,2.1,192.1,0.02,23.7,25.7,"16:00:08",1
"20/07/10","16:20",1.0,26.0,88.2,1002.6,194.2,1.2,2.0,212.8,0.01,23.9,25.8,"16:18:08",1
"20/07/10","16:30",0.0,25.5,88.8,1002.6,227.4,0.5,1.4,213.2,0.02,23.6,25.7,"16:24:56",1
"20/07/10","16:40",0.0,25.7,89.3,1002.4,306.5,0.1,0.5,345.6,0.05,23.8,25.6,"16:30:08",1
"20/07/10","16:50",0.0,26.1,89.5,1002.4,202.9,0.2,0.5,155.1,0.09,24.3,25.8,"16:41:20",1
"20/07/10","17:00",0.0,26.1,89.8,1002.4,341.3,0.6,1.3,341.5,0.07,24.3,25.6,"16:55:12",1
"20/07/10","17:10",0.0,26.2,90.1,1002.4,330.1,0.3,1.0,295.3,0.09,24.5,25.7,"17:02:48",1
"20/07/10","17:20",0.0,26.1,90.2,1001.9,293.1,0.6,1.2,231.9,0.04,24.4,25.7,"17:10:32",1
"20/07/10","17:30",0.0,25.9,90.4,1002.6,347.9,0.7,1.3,339.1,0.03,24.2,25.8,"17:22:08",1
"20/07/10","17:40",0.0,25.9,90.6,1002.6,278.6,0.5,1.0,258.5,0.03,24.3,25.6,"17:31:04",1
"20/07/10","17:50",0.0,26.0,90.7,1002.6,252.6,0.3,1.1,309.3,0.01,24.4,25.7,"17:47:28",1
"20/07/10","18:00",0.0,25.8,90.9,1002.6,303.2,0.7,1.3,320.4,0.00,24.2,25.7,"17:54:16",1
"20/07/10","18:10",0.0,25.6,91.1,1002.6,283.4,1.0,1.6,296.1,0.00,24.1,25.7,"18:03:36",1
"20/07/10","18:20",0.0,25.6,91.3,1002.6,304.1,0.8,1.8,333.2,0.00,24.1,25.7,"18:16:16",1
"20/07/10","18:30",0.0,25.5,91.6,1002.2,308.8,0.6,1.4,341.8,0.00,24.1,25.4,"18:29:52",1
"20/07/10","18:40",0.0,25.6,91.7,1002.2,299.4,0.8,1.9,334.4,0.00,24.2,25.6,"18:30:32",1
"20/07/10","18:50",0.0,25.5,91.8,1002.2,326.6,1.0,2.4,330.4,0.00,24.1,25.5,"18:42:16",1
"20/07/10","19:00",0.0,25.4,92.1,1002.2,322.3,0.8,1.6,320.9,0.00,24.1,25.5,"18:52:24",1
"20/07/10","19:10",0.0,25.4,92.3,1002.2,300.0,0.8,1.7,310.0,0.00,24.1,25.5,"19:02:00",1
"20/07/10","19:20",0.4,25.2,92.5,1001.9,255.5,0.7,1.3,202.8,0.00,23.9,25.5,"19:13:20",1
"20/07/10","19:30",0.0,25.2,92.7,1001.9,342.5,0.6,1.3,336.9,0.00,24.0,25.5,"19:23:20",1
"20/07/10","19:40",0.0,25.2,92.8,1002.2,286.8,0.6,1.3,293.4,0.00,24.0,25.4,"19:37:12",1
"20/07/10","19:50",0.2,25.1,93.0,1002.2,329.5,0.6,1.6,343.1,0.00,23.9,25.4,"19:44:24",1
"20/07/10","20:00",0.6,25.1,93.1,1002.4,346.2,0.6,1.1,36.0,0.00,23.9,25.4,"19:59:52",1
"20/07/10","20:10",1.0,25.1,93.2,1001.9,313.8,0.3,0.9,45.3,0.00,24.0,25.4,"20:00:08",1
"20/07/10","20:20",0.4,25.1,93.4,1002.2,184.0,0.6,1.1,134.9,0.00,24.0,25.5,"20:15:28",1
"20/07/10","20:30",0.2,25.1,93.4,1002.4,336.3,0.5,1.4,345.2,0.00,24.0,25.2,"20:24:56",1
"20/07/10","20:40",0.2,25.0,93.6,1002.4,211.4,0.3,0.9,253.2,0.00,23.9,25.3,"20:35:04",1
"20/07/10","20:50",0.2,25.0,93.7,1002.4,155.5,0.3,1.2,266.4,0.00,24.0,25.2,"20:49:28",1
"20/07/10","21:00",0.0,25.1,93.8,1002.4,312.3,0.7,1.4,343.5,0.00,24.1,25.2,"20:55:36",1
"20/07/10","21:10",0.0,25.2,93.9,1002.4,22.1,0.7,1.9,341.3,0.00,24.2,25.1,"21:01:36",1
"20/07/10","21:20",0.2,25.3,93.9,1002.4,69.3,0.7,1.9,123.9,0.00,24.3,25.2,"21:17:20",1
"20/07/10","21:30",0.0,25.3,94.0,1002.4,316.4,0.6,1.9,186.4,0.00,24.3,25.2,"21:24:32",1
"20/07/10","21:40",0.0,25.3,94.1,1002.6,350.7,0.7,1.7,14.2,0.00,24.3,25.2,"21:38:32",1
"20/07/10","21:50",0.0,25.2,94.2,1002.4,212.6,0.6,1.8,196.7,0.00,24.2,25.2,"21:42:08",1
"20/07/10","22:00",0.0,25.2,94.2,1002.6,136.9,0.7,1.4,122.4,0.00,24.2,25.2,"21:52:32",1
"20/07/10","22:10",0.0,25.1,94.2,1002.4,292.5,0.6,1.3,347.7,0.00,24.1,25.1,"22:07:36",1
"20/07/10","22:20",0.0,25.0,94.4,1002.4,332.1,0.7,1.2,349.9,0.00,24.1,25.2,"22:17:36",1
"20/07/10","22:30",0.0,24.9,94.5,1002.6,20.8,0.6,1.3,24.4,0.00,24.0,25.0,"22:20:40",1
"20/07/10","22:40",0.0,24.8,94.5,1002.4,329.2,0.6,1.0,292.1,0.00,23.9,24.9,"22:37:52",1
"20/07/10","22:50",0.0,24.7,94.6,1002.6,284.7,0.5,1.1,342.5,0.00,23.8,25.1,"22:48:40",1
"20/07/10","23:00",0.0,24.8,94.7,1002.2,38.5,0.6,1.6,36.7,0.00,23.9,25.0,"22:56:40",1
"20/07/10","23:10",0.0,24.8,94.8,1001.9,260.6,0.7,1.6,227.7,0.00,23.9,25.0,"23:08:00",1
"20/07/10","23:20",0.0,24.7,94.8,1002.2,276.1,0.6,1.6,227.8,0.00,23.8,24.9,"23:10:48",1
"20/07/10","23:30",0.0,24.7,94.9,1002.2,336.7,0.7,1.2,354.2,0.00,23.9,24.9,"23:23:20",1
"20/07/10","23:40",0.0,24.6,94.9,1001.9,277.7,0.5,1.0,235.7,0.00,23.8,24.9,"23:35:20",1
"20/07/10","23:50",0.0,24.6,94.9,1001.7,312.8,0.6,1.3,240.6,0.00,23.8,25.0,"23:46:08",1
"20/07/10","24:00",0.0,24.6,95.0,1001.2,18.9,0.7,1.7,351.7,0.00,23.8,25.1,"23:59:22",1
